[[{"header":{"parameterUnit":"m.s-1","parameterCategory":1,"la1":30.2991,"la2":30.254,"lo1":-89.0895,"lo2":-89.0444,"dy":0.0017,"dx":0.0017,"nx":28,"ny":28,"refTime":"2023-11-08T09:00:00:Z","depth":0,"parameterNumber":2,"parameterNumberName":"U-component_of_WINDS"},"data":[0,0,0,0,0,0,0,0,0,0,0,0,0,0,0,0,0,0,0,0,0,0,0,0,0,0,0,0,0,0,0,0,0,0,0,0,0,0,0,0,0,0,0,0,0,0,0,0,0,0,0,0,0,0,0,0,0,0,-1.4451,-1.4451,0,-1.4449,-1.4449,-1.4449,-1.4395,-1.4394,-1.4392,-1.4391,-1.439,-1.4391,-1.4393,0,0,0,0,0,0,0,0,0,0,0,0,0,-1.4408,-1.4409,-1.4451,-1.4451,-1.4451,-1.4449,-1.4449,-1.4449,-1.4395,-1.4394,-1.4392,-1.439,-1.439,-1.4391,-1.4393,0,0,0,0,0,0,0,0,0,0,0,0,0,-1.4418,-1.4409,-1.4451,-1.4424,-1.4421,-1.4449,-1.4449,-1.4449,-1.4396,-1.4394,-1.4391,-1.4389,-1.4389,-1.4391,-1.4393,-1.4447,0,0,-1.4399,-1.44,0,0,0,0,0,0,0,0,-1.4418,-1.442,-1.4428,-1.4425,-1.4423,-1.442,-1.4433,-1.4448,-1.4396,-1.4405,-1.4391,-1.4388,-1.4402,-1.4403,-1.4407,-1.4447,-1.4447,-1.4399,-1.44,-1.4401,-1.4402,0,0,0,0,0,0,0,-1.4417,-1.442,-1.445,-1.4428,-1.4425,-1.4412,-1.4411,-1.4436,-1.4415,-1.4404,-1.44,-1.4401,-1.44,-1.4405,-1.4406,-1.4447,-1.4399,-1.4401,-1.4402,-1.4403,-1.4529,-1.4532,0,0,0,0,0,0,-1.442,-1.4419,-1.445,-1.445,-1.4415,-1.4414,-1.4413,-1.4423,-1.4415,-1.4412,-1.4403,-1.4398,-1.4403,-1.4404,-1.4406,-1.4468,-1.4401,-1.4403,-1.4404,-1.4527,-1.453,-1.4532,0,0,0,0,0,0,-1.4419,-1.4423,-1.445,-1.4434,-1.4436,-1.4417,-1.4429,-1.4424,-1.4429,-1.4414,-1.441,-1.4412,-1.4401,-1.4404,-1.4437,-1.4467,-1.4404,-1.4405,-1.4525,-1.4528,-1.4531,-1.4592,0,0,0,0,0,0,-1.4418,-1.4423,-1.4443,-1.4434,-1.4437,-1.4481,-1.443,-1.4426,-1.4432,-1.4427,-1.4421,-1.4418,-1.44,-1.4434,-1.4439,-1.4469,-1.4407,-1.4522,-1.4526,-1.453,-1.4587,-1.4597,-1.4605,0,0,0,0,0,-1.4417,-1.4461,-1.4445,-1.4449,-1.4462,-1.4483,-1.4484,-1.4462,-1.4435,-1.4455,-1.4445,-1.4418,-1.4463,-1.4438,-1.4443,-1.4474,-1.452,-1.4525,-1.453,-1.4583,-1.4595,-1.4605,0,0,0,0,0,0,-1.4475,-1.4459,-1.4441,-1.4484,-1.4485,-1.4473,-1.4498,-1.4475,-1.4484,-1.4479,-1.4451,-1.445,-1.4488,-1.4484,-1.4456,-1.4525,-1.4487,-1.4493,-1.4526,-1.4537,-1.4546,-1.4546,-1.4409,0,0,0,0,0,-1.4493,-1.451,-1.4496,-1.4535,-1.4536,-1.4517,-1.4526,-1.4508,-1.4508,-1.4509,-1.4501,-1.4502,-1.4517,-1.4527,-1.4539,-1.4587,-1.4584,-1.461,-1.4619,-1.4627,-1.4632,-1.4656,-1.4667,-1.4549,-1.4549,-1.4549,0,0,-1.4529,-1.4523,-1.4536,-1.4547,-1.4545,-1.4564,-1.4518,-1.4541,-1.4554,-1.4512,-1.4543,-1.4537,-1.4537,-1.4577,-1.4595,-1.4575,-1.4664,-1.4633,-1.4639,-1.4641,-1.4662,-1.4674,-1.4684,-1.4552,-1.4551,-1.4551,0,0,-1.4606,-1.4604,-1.4635,-1.4635,-1.4633,-1.462,-1.4628,-1.462,-1.4614,-1.4644,-1.4613,-1.4629,-1.4654,-1.4655,-1.4659,-1.4735,-1.471,-1.474,-1.4787,-1.4811,-1.482,-1.4828,-1.4855,-1.4865,-1.4745,-1.4746,-1.4746,0,-1.4652,-1.4679,-1.4654,-1.4678,-1.4684,-1.4646,-1.4678,-1.4678,-1.4681,-1.4686,-1.4664,-1.4694,-1.4692,-1.4731,-1.475,-1.4754,-1.4762,-1.474,-1.4821,-1.4829,-1.4836,-1.4861,-1.4871,-1.4749,-1.4749,-1.4748,-1.4748,0,-1.4736,-1.4755,-1.4781,-1.4784,-1.4792,-1.482,-1.4799,-1.481,-1.4792,-1.4781,-1.4812,-1.4808,-1.4818,-1.4826,-1.4809,-1.4863,-1.4851,-1.4826,-1.4787,-1.4851,-1.4874,-1.4883,-1.4754,-1.4753,-1.4752,-1.4751,0,0,-1.4849,-1.4837,-1.4847,-1.4847,-1.4842,-1.4857,-1.4883,-1.4892,-1.4902,-1.4906,-1.4926,-1.4948,-1.4924,-1.4929,-1.4911,-1.4932,-1.4992,-1.4904,-1.4904,-1.492,-1.5051,-1.5069,-1.5081,-1.4976,-1.4978,-1.4979,-1.505,0,-1.4922,-1.4965,-1.4944,-1.499,-1.5007,-1.4971,-1.4993,-1.4993,-1.4983,-1.4997,-1.4986,-1.5002,-1.497,-1.4972,-1.4991,-1.4981,-1.5018,-1.4975,-1.4995,-1.4996,-1.4995,-1.5093,-1.5113,-1.518,-1.5059,-1.5061,-1.5062,0,-1.5014,-1.502,-1.5067,-1.5058,-1.5065,-1.5086,-1.5092,-1.5105,-1.5104,-1.5095,-1.51,-1.5077,-1.5102,-1.5064,-1.5098,-1.5069,-1.5076,-1.5072,-1.5074,-1.5075,-1.5032,-1.5095,-1.5201,-1.5211,-1.5076,-1.5075,-1.5074,0,-1.5091,-1.5111,-1.5141,-1.5143,-1.5134,-1.5149,-1.5146,-1.5142,-1.5149,-1.5155,-1.5159,-1.5168,-1.5173,-1.5181,-1.5161,-1.5135,-1.5197,-1.5157,-1.519,-1.5191,-1.5205,-1.5204,-1.5313,-1.521,-1.521,-1.521,-1.521,0,-1.5174,-1.5205,-1.5176,-1.5195,-1.5227,-1.5202,-1.5235,-1.5228,-1.5225,-1.5242,-1.5212,-1.5229,-1.5202,-1.5216,-1.5201,-1.5231,-1.5233,-1.5227,-1.5223,-1.5229,-1.523,-1.5233,-1.5227,-1.5213,-1.5212,-1.5212,-1.5211,0,-1.5266,-1.5247,-1.5278,-1.5267,-1.5264,-1.5289,-1.5279,-1.5296,-1.5284,-1.5306,-1.531,-1.5291,-1.5306,-1.5287,-1.5301,-1.5291,-1.5331,-1.532,-1.5331,-1.5328,-1.5361,-1.5358,-1.5475,-1.5489,-1.5378,-1.538,-1.538,0,-1.532,-1.5342,-1.5333,-1.5341,-1.534,-1.5355,-1.5361,-1.5337,-1.5345,-1.5345,-1.5362,-1.5374,-1.5382,-1.5407,-1.5395,-1.5405,-1.5394,-1.5434,-1.5395,-1.5401,-1.5393,-1.5392,-1.5394,-1.5442,-1.5443,-1.5444,-1.5445,0,-1.5418,-1.5408,-1.5418,-1.5425,-1.5434,-1.5438,-1.5441,-1.545,-1.5424,-1.5435,-1.5449,-1.5456,-1.5469,-1.5481,-1.5487,-1.5484,-1.5461,-1.5457,-1.5465,-1.5472,-1.5477,-1.5474,-1.5352,-1.5455,-1.5454,-1.5453,-1.5453,-1.5452,-1.5492,-1.5509,-1.5505,-1.5517,-1.5516,-1.5519,-1.5534,-1.5524,-1.5535,-1.5544,-1.5529,-1.5547,-1.5544,-1.555,-1.555,-1.5564,-1.5546,-1.5558,-1.5561,-1.5564,-1.5569,-1.5476,-1.5565,-1.5565,-1.5564,-1.5564,-1.5564,0,-1.5587,-1.5583,-1.5594,-1.5598,-1.5608,-1.5584,-1.5585,-1.5595,-1.5611,-1.561,-1.5619,-1.5635,-1.5647,-1.5636,-1.5645,-1.5658,-1.5647,-1.5661,-1.566,-1.5659,-1.5584,-1.5576,-1.567,-1.567,-1.567,-1.567,-1.567,-1.567,-1.5638,-1.5666,-1.5656,-1.5683,-1.5678,-1.5695,-1.5698,-1.57,-1.5699,-1.5718,-1.5728,-1.572,-1.5715,-1.5724,-1.5733,-1.573,-1.5734,-1.5752,-1.5745,-1.5675,-1.5665,-1.5655,-1.5647,-1.5754,-1.5754,-1.5818,-1.5819,-1.5819]},{"header":{"parameterUnit":"m.s-1","parameterCategory":1,"la1":30.2991,"la2":30.254,"lo1":-89.0895,"lo2":-89.0444,"dy":0.0017,"dx":0.0017,"nx":28,"ny":28,"refTime":"2023-11-08T09:00:00:Z","depth":0,"parameterNumber":3,"parameterNumberName":"V-component_of_WINDS"},"data":[0,0,0,0,0,0,0,0,0,0,0,0,0,0,0,0,0,0,0,0,0,0,0,0,0,0,0,0,0,0,0,0,0,0,0,0,0,0,0,0,0,0,0,0,0,0,0,0,0,0,0,0,0,0,0,0,0,0,0.3134,0.3134,0,0.3097,0.3097,0.3096,0.3131,0.3132,0.3133,0.3135,0.309,0.3088,0.3085,0,0,0,0,0,0,0,0,0,0,0,0,0,0.3231,0.3229,0.3134,0.3134,0.3133,0.3097,0.3097,0.3096,0.313,0.3132,0.3134,0.3135,0.3091,0.3088,0.3085,0,0,0,0,0,0,0,0,0,0,0,0,0,0.3191,0.3228,0.3134,0.3146,0.3147,0.3097,0.3097,0.3096,0.313,0.3132,0.3134,0.3136,0.3092,0.3088,0.3085,0.302,0,0,0.3073,0.3072,0,0,0,0,0,0,0,0,0.3193,0.3187,0.3145,0.3145,0.3146,0.3121,0.3115,0.307,0.3129,0.3136,0.3135,0.3137,0.3098,0.3094,0.3082,0.3018,0.3016,0.3073,0.3071,0.3069,0.3068,0,0,0,0,0,0,0,0.3196,0.3189,0.3119,0.3144,0.3145,0.3152,0.3149,0.3106,0.3106,0.3136,0.3138,0.3134,0.3099,0.3086,0.3082,0.3015,0.3073,0.307,0.3068,0.3066,0.2898,0.2896,0,0,0,0,0,0,0.3198,0.3191,0.3121,0.3118,0.3175,0.3149,0.3145,0.3127,0.3106,0.3105,0.3132,0.3135,0.3091,0.3086,0.308,0.3004,0.3069,0.3066,0.3064,0.29,0.2897,0.2895,0,0,0,0,0,0,0.32,0.3191,0.3122,0.3155,0.3147,0.3145,0.3124,0.3125,0.3112,0.3104,0.3103,0.3119,0.3093,0.3085,0.3036,0.3003,0.3064,0.3061,0.2903,0.2899,0.2896,0.2851,0,0,0,0,0,0,0.3202,0.3192,0.3168,0.3155,0.3145,0.3079,0.3122,0.3123,0.3106,0.311,0.3091,0.309,0.3094,0.3041,0.3032,0.2999,0.3058,0.2905,0.2901,0.2897,0.2855,0.2846,0.2839,0,0,0,0,0,0.3206,0.3154,0.3166,0.3158,0.3115,0.3077,0.3072,0.3079,0.3103,0.3079,0.3074,0.3091,0.3009,0.3036,0.3026,0.2991,0.2907,0.2902,0.2897,0.2859,0.2848,0.2839,0,0,0,0,0,0,0.3161,0.3153,0.3166,0.3109,0.3094,0.3083,0.3052,0.3067,0.3042,0.3047,0.3055,0.3051,0.2999,0.299,0.302,0.2929,0.2962,0.2954,0.2936,0.2926,0.2918,0.292,0.3055,0,0,0,0,0,0.3145,0.3116,0.311,0.306,0.3052,0.3054,0.3037,0.3045,0.3028,0.3021,0.3012,0.2994,0.2965,0.2945,0.2917,0.2855,0.2851,0.2826,0.2818,0.2812,0.2805,0.2773,0.2762,0.2878,0.2878,0.2878,0,0,0.311,0.3102,0.3083,0.3051,0.304,0.3009,0.3048,0.3013,0.299,0.3015,0.2969,0.2962,0.2942,0.2887,0.2861,0.2878,0.2773,0.2805,0.28,0.2797,0.2767,0.2756,0.2746,0.2875,0.2875,0.2876,0,0,0.3031,0.3023,0.2982,0.2971,0.2955,0.2957,0.2947,0.2935,0.2932,0.2886,0.2906,0.2878,0.2826,0.2812,0.2798,0.2719,0.2733,0.2709,0.2666,0.2635,0.2626,0.2618,0.259,0.258,0.2703,0.2702,0.2702,0,0.299,0.2946,0.2958,0.2923,0.2909,0.2934,0.2892,0.288,0.2855,0.2844,0.2864,0.2802,0.279,0.2733,0.2714,0.2701,0.269,0.2711,0.2626,0.2618,0.2611,0.2585,0.2574,0.27,0.27,0.27,0.2701,0,0.2896,0.2865,0.2834,0.2812,0.2795,0.2756,0.2762,0.2742,0.2752,0.2752,0.2705,0.2693,0.2664,0.2651,0.2659,0.2595,0.2606,0.2626,0.2659,0.2597,0.2572,0.2562,0.2696,0.2697,0.2698,0.2698,0,0,0.2785,0.2774,0.2762,0.2754,0.274,0.2716,0.2679,0.2654,0.2637,0.262,0.2589,0.2547,0.2566,0.255,0.2557,0.253,0.2469,0.2553,0.2553,0.2538,0.2399,0.2384,0.2373,0.2479,0.2478,0.2476,0.2401,0,0.2707,0.2645,0.2657,0.2596,0.2568,0.2593,0.2561,0.2549,0.2548,0.2524,0.2522,0.2493,0.252,0.2511,0.2486,0.2482,0.2441,0.2487,0.245,0.2448,0.2454,0.236,0.2343,0.2273,0.2391,0.239,0.2389,0,0.2606,0.2589,0.2527,0.252,0.2509,0.248,0.2459,0.2436,0.2422,0.2424,0.2408,0.2421,0.2384,0.2419,0.2368,0.24,0.2385,0.2382,0.2379,0.2375,0.2414,0.2353,0.225,0.224,0.2373,0.2375,0.2376,0,0.2533,0.2494,0.2452,0.2444,0.2435,0.2414,0.2409,0.2398,0.2383,0.2365,0.2355,0.2331,0.2318,0.2299,0.2305,0.233,0.2253,0.2288,0.2252,0.2252,0.2234,0.2235,0.2127,0.2225,0.2225,0.2225,0.2226,0,0.2444,0.2405,0.2419,0.2393,0.235,0.2364,0.2321,0.2319,0.231,0.2283,0.2303,0.2277,0.2287,0.2262,0.2266,0.2224,0.2218,0.2217,0.2219,0.2215,0.2216,0.2205,0.221,0.2223,0.2223,0.2224,0.2224,0,0.2354,0.2362,0.2318,0.2315,0.2313,0.2282,0.2278,0.2254,0.2256,0.2223,0.2216,0.2218,0.219,0.2195,0.2163,0.2166,0.2114,0.2121,0.2119,0.212,0.2085,0.2088,0.1966,0.1951,0.2059,0.2058,0.2057,0,0.2296,0.2267,0.2262,0.2247,0.2242,0.2217,0.2203,0.2216,0.22,0.2185,0.2162,0.2137,0.2117,0.2071,0.2069,0.2045,0.2052,0.2012,0.2049,0.2047,0.2052,0.2054,0.2051,0.2004,0.2003,0.2002,0.2001,0,0.2194,0.22,0.218,0.2162,0.2146,0.2131,0.2119,0.2105,0.2117,0.2098,0.2072,0.2057,0.2027,0.2001,0.1979,0.1973,0.1988,0.199,0.198,0.1976,0.1976,0.1976,0.2099,0.1992,0.1993,0.1993,0.1994,0.1994,0.2118,0.2095,0.2088,0.2066,0.2059,0.2048,0.2025,0.2027,0.2005,0.1983,0.1992,0.1962,0.1951,0.1925,0.1916,0.1892,0.1907,0.1893,0.1889,0.1885,0.1882,0.1981,0.1888,0.1888,0.1888,0.1889,0.1889,0,0.2017,0.2015,0.1995,0.1979,0.1961,0.1981,0.1969,0.1953,0.1927,0.1917,0.1898,0.1868,0.1845,0.1843,0.182,0.1801,0.1808,0.1795,0.1796,0.1794,0.1869,0.188,0.179,0.179,0.179,0.179,0.179,0.179,0.1962,0.1924,0.193,0.1889,0.1887,0.186,0.1851,0.1841,0.1834,0.18,0.1782,0.1782,0.1775,0.1753,0.1732,0.1732,0.1723,0.1707,0.1709,0.1779,0.1789,0.1798,0.1808,0.1705,0.1705,0.1637,0.1636,0.1636]}]]